CW1663 Weather Reports


Display with metric or nautical units.
time (UTC)temp
F
wind
direction
speed
MPH
gust
MPH
rain 1hr
in
rain 24hr
in
rain mn
in
humidity
%
barometer
mb
20260901084805 60 241 1.0 3.0 0.00 0.02 0.01 80 1021.0
20260901083305 59 250 2.0 8.0 0.00 0.02 0.01 80 1020.9
20260901082804 59 254 3.0 7.0 0.00 0.02 0.01 80 1020.9
20260901082306 59 238 1.0 3.0 0.00 0.02 0.01 81 1020.9
20260901081804 59 238 2.0 3.0 0.00 0.02 0.01 80 1020.9
20260901075307 58 294 2.0 6.0 0.00 0.02 0.01 81 1020.6
20260901074805 58 278 3.0 5.0 0.00 0.02 0.01 81 1020.6
20260901072804 58 268 3.0 6.0 0.00 0.02 0.01 81 1020.6
20260901072309 57 271 3.0 6.0 0.00 0.02 0.01 81 1020.6
20260901071805 57 263 1.0 6.0 0.00 0.02 0.01 82 1020.6
20260901065805 57 266 3.0 6.0 0.00 0.03 0.01 82 1020.5
20260901065305 57 269 3.0 6.0 0.00 0.03 0.01 82 1020.4
20260901064805 57 294 3.0 8.0 0.00 0.03 0.01 82 1020.4
20260901063305 57 287 2.0 5.0 0.00 0.03 0.01 82 1020.0
20260901062309 56 285 2.0 3.0 0.00 0.03 0.01 83 1020.0
20260901061805 56 288 2.0 3.0 0.00 0.03 0.01 83 1020.0
20260901061304 56 296 3.0 5.0 0.00 0.03 0.01 83 1019.9
20260901060308 56 285 3.0 7.0 0.00 0.03 0.01 84 1020.0
20260901055805 56 288 3.0 5.0 0.00 0.03 0.01 84 1020.0
20260901054304 55 298 3.0 7.0 0.01 0.03 0.01 84 1019.7
20260901053804 55 296 4.0 6.0 0.01 0.03 0.01 85 1019.7
20260901053304 55 288 3.0 5.0 0.01 0.03 0.01 85 1019.6
20260901052804 55 297 3.0 6.0 0.01 0.03 0.01 85 1019.6
20260901052307 55 290 3.0 5.0 0.01 0.03 0.01 85 1019.7
20260901050804 55 295 3.0 7.0 0.01 0.03 0.01 85 1019.7
20260901050304 55 293 3.0 7.0 0.01 0.03 0.01 85 1019.6
20260901045804 55 291 2.0 5.0 0.01 0.03 0.01 85 1019.6
20260901045306 55 286 3.0 7.0 0.01 0.03 0.01 85 1019.5
20260901044305 55 296 5.0 7.0 0.00 0.02 0.00 85 1019.5
20260901043804 55 294 4.0 8.0 0.00 0.02 0.00 85 1019.5
20260901043305 55 292 3.0 7.0 0.00 0.02 0.00 86 1019.4
20260901042805 55 292 3.0 7.0 0.00 0.02 0.00 86 1019.4
20260901034304 55 295 4.0 7.0 0.00 0.02 0.00 86 1019.3
20260901032804 55 275 3.0 7.0 0.00 0.02 0.00 86 1019.2
20260901031805 55 288 2.0 6.0 0.00 0.02 0.00 85 1019.2
20260901031305 56 289 3.0 8.0 0.00 0.02 0.00 85 1019.3
20260901030805 56 287 3.0 5.0 0.00 0.02 0.00 85 1019.3
20260901025306 56 282 3.0 8.0 0.00 0.02 0.00 84 1019.2
20260901024305 56 276 3.0 7.0 0.00 0.02 0.00 84 1019.1
20260901023804 56 292 4.0 8.0 0.00 0.02 0.00 84 1019.1
20260901022805 56 300 5.0 8.0 0.00 0.02 0.00 84 1019.1
20260901022306 56 289 4.0 8.0 0.00 0.02 0.00 84 1019.2
20260901021804 56 286 5.0 8.0 0.00 0.02 0.00 84 1019.2
20260901020304 57 296 5.0 8.0 0.00 0.02 0.00 84 1019.3
20260901015804 57 303 6.0 9.0 0.00 0.02 0.00 84 1019.3
20260901012804 57 289 5.0 12.0 0.00 0.02 0.00 83 1019.0
20260901011805 57 297 5.0 9.0 0.00 0.02 0.00 83 1018.8
20260901011305 58 287 5.0 8.0 0.00 0.02 0.00 83 1018.9
20260901010805 58 289 6.0 9.0 0.00 0.02 0.00 83 1018.9
20260901010304 58 282 5.0 10.0 0.00 0.02 0.00 83 1018.9
20260901005804 58 281 4.0 8.0 0.00 0.02 0.00 83 1018.9
20260901004805 58 291 4.0 9.0 0.00 0.02 0.00 83 1018.7
20260901004305 58 292 5.0 9.0 0.00 0.02 0.00 83 1018.8
20260901003804 58 288 5.0 9.0 0.00 0.02 0.00 83 1018.8
20260901002305 58 287 5.0 12.0 0.00 0.02 0.00 83 1018.5
20260901000805 58 281 3.0 7.0 0.00 0.02 0.00 82 1018.6
20260831233805 59 271 5.0 8.0 0.00 0.02 0.00 81 1018.5
20260831232805 59 288 4.0 9.0 0.00 0.02 0.00 81 1018.5
20260831232306 59 287 3.0 8.0 0.00 0.02 0.00 81 1018.4
20260831231304 59 287 4.0 7.0 0.00 0.02 0.00 81 1018.4
20260831230305 59 295 4.0 9.0 0.00 0.02 0.00 80 1018.5
20260831225806 59 282 3.0 8.0 0.00 0.02 0.02 80 1018.5
20260831225306 59 284 5.0 10.0 0.00 0.02 0.02 79 1018.5
20260831224304 60 272 5.0 10.0 0.00 0.02 0.02 79 1018.5
20260831223305 60 278 5.0 7.0 0.00 0.02 0.02 78 1018.4
20260831222805 60 266 4.0 9.0 0.00 0.02 0.02 78 1018.4
20260831220304 60 276 5.0 8.0 0.00 0.02 0.02 77 1018.3
20260831215805 60 268 3.0 7.0 0.00 0.02 0.02 77 1018.3
20260831213805 61 270 3.0 8.0 0.01 0.02 0.02 77 1018.1
20260831213304 61 271 3.0 9.0 0.01 0.02 0.02 77 1017.9
20260831212805 61 284 5.0 9.0 0.01 0.02 0.02 77 1017.9
20260831212306 61 282 3.0 8.0 0.01 0.02 0.02 77 1017.9
20260831211304 61 254 3.0 8.0 0.01 0.02 0.02 76 1017.9
20260831210304 62 270 4.0 7.0 0.01 0.02 0.02 76 1017.8
20260831205805 62 262 3.0 7.0 0.01 0.02 0.02 76 1017.8
20260831204804 62 261 6.0 10.0 0.00 0.01 0.01 76 1017.7
20260831203304 62 262 3.0 8.0 0.00 0.01 0.01 76 1017.4
20260831202805 63 254 3.0 7.0 0.00 0.01 0.01 75 1017.4
20260831202306 63 256 3.0 7.0 0.00 0.01 0.01 75 1017.3
20260831201805 63 253 3.0 6.0 0.00 0.01 0.01 75 1017.3
20260831201304 63 251 3.0 6.0 0.00 0.01 0.01 75 1017.3
20260831195306 64 258 3.0 7.0 0.00 0.01 0.01 75 1016.9
20260831193804 64 267 5.0 7.0 0.00 0.01 0.01 75 1016.9
20260831193305 64 277 5.0 8.0 0.00 0.01 0.01 75 1016.8
20260831192305 65 246 3.0 7.0 0.00 0.01 0.01 75 1016.6
20260831190805 65 258 3.0 8.0 0.00 0.01 0.01 74 1016.5
20260831190304 65 259 4.0 7.0 0.00 0.01 0.01 74 1016.4
20260831185306 66 267 3.0 6.0 0.00 0.01 0.01 73 1016.3
20260831184804 66 271 3.0 10.0 0.00 0.01 0.01 73 1016.3
20260831184304 66 275 5.0 10.0 0.00 0.01 0.01 72 1016.2
20260831183804 66 252 5.0 9.0 0.00 0.01 0.01 72 1016.2
20260831182305 67 291 6.0 12.0 0.00 0.01 0.01 72 1015.9
20260831180804 67 261 3.0 9.0 0.00 0.01 0.01 71 1015.7
20260831180304 68 246 4.0 9.0 0.00 0.01 0.01 71 1015.6
20260831175805 68 236 6.0 12.0 0.00 0.01 0.01 70 1015.6
20260831174804 68 256 5.0 12.0 0.00 0.01 0.01 70 1015.5
20260831174304 68 261 5.0 9.0 0.00 0.01 0.01 69 1015.4
20260831173805 69 268 6.0 12.0 0.00 0.01 0.01 69 1015.4
20260831172306 69 251 6.0 12.0 0.00 0.01 0.01 68 1015.2
20260831171805 69 259 5.0 13.0 0.00 0.01 0.01 67 1015.2
20260831171304 70 248 5.0 8.0 0.00 0.01 0.01 67 1015.0
20260831170804 69 265 3.0 9.0 0.00 0.01 0.01 68 1015.0
20260831163805 71 275 6.0 14.0 0.00 0.01 0.01 64 1014.6
20260831162306 70 267 2.0 5.0 0.00 0.01 0.01 67 1014.5
20260831161804 70 235 4.0 9.0 0.00 0.01 0.01 66 1014.5
20260831161304 71 219 3.0 12.0 0.00 0.01 0.01 66 1014.5
20260831160804 71 247 6.0 10.0 0.00 0.01 0.01 65 1014.5
20260831155306 72 250 6.0 13.0 0.00 0.01 0.01 65 1014.2
20260831154804 72 290 7.0 16.0 0.00 0.01 0.01 64 1014.2
20260831154305 71 259 7.0 12.0 0.00 0.01 0.01 64 1014.2
20260831152804 71 254 8.0 15.0 0.00 0.01 0.01 65 1014.1
20260831151305 71 241 9.0 16.0 0.00 0.01 0.01 65 1013.9
20260831150805 71 249 8.0 13.0 0.00 0.01 0.01 65 1013.9
20260831145804 71 242 7.0 14.0 0.00 0.01 0.01 66 1014.0
20260831145306 71 254 12.0 18.0 0.00 0.01 0.01 66 1013.8
20260831144804 71 271 6.0 12.0 0.00 0.01 0.01 66 1013.8
20260831144304 71 252 9.0 16.0 0.00 0.01 0.01 67 1013.7
20260831143804 70 247 6.0 12.0 0.00 0.01 0.01 67 1013.7
20260831142804 70 288 7.0 13.0 0.00 0.01 0.01 68 1013.6
20260831140804 69 281 5.0 12.0 0.00 0.01 0.01 72 1013.5
20260831140304 69 225 7.0 13.0 0.00 0.01 0.01 71 1013.5
20260831135306 68 255 6.0 12.0 0.00 0.01 0.01 73 1013.4
20260831134805 68 249 6.0 10.0 0.00 0.01 0.01 73 1013.4
20260831133805 68 243 5.0 12.0 0.00 0.01 0.01 73 1013.3
20260831132306 68 262 5.0 9.0 0.00 0.01 0.01 74 1013.1
20260831130804 67 254 5.0 12.0 0.00 0.01 0.01 75 1013.0
20260831125805 67 249 6.0 12.0 0.00 0.01 0.01 74 1012.8
20260831124804 68 252 7.0 13.0 0.00 0.01 0.01 73 1012.7
20260831124304 67 278 7.0 13.0 0.00 0.01 0.01 74 1012.6
20260831123807 67 260 6.0 12.0 0.00 0.01 0.01 74 1012.6
20260831123304 67 238 4.0 12.0 0.00 0.01 0.01 74 1012.4
20260831122805 67 265 7.0 13.0 0.00 0.01 0.01 73 1012.4
20260831122306 68 263 7.0 13.0 0.00 0.01 0.01 73 1012.3
20260831121804 68 279 6.0 12.0 0.00 0.01 0.01 75 1012.3
20260831120305 67 260 6.0 13.0 0.00 0.01 0.01 76 1011.9
20260831114804 67 239 8.0 15.0 0.00 0.01 0.01 76 1012.0
20260831113805 67 273 6.0 16.0 0.00 0.01 0.01 77 1011.8
20260831112307 66 236 4.0 9.0 0.00 0.01 0.01 80 1011.5
20260831111805 66 251 7.0 15.0 0.00 0.01 0.01 79 1011.5
20260831110304 65 224 6.0 13.0 0.00 0.01 0.01 82 1011.3
20260831105804 64 287 8.0 15.0 0.00 0.01 0.01 82 1011.3
20260831103304 63 253 6.0 12.0 0.00 0.01 0.01 85 1011.1
20260831102805 63 276 9.0 15.0 0.00 0.01 0.01 84 1011.1
20260831101804 63 264 5.0 12.0 0.00 0.01 0.01 86 1010.9
20260831101304 63 243 6.0 13.0 0.00 0.01 0.01 86 1010.8
20260831095306 61 254 6.0 13.0 0.00 0.01 0.01 88 1010.7
20260831094804 61 257 8.0 13.0 0.00 0.01 0.01 88 1010.7
20260831094304 61 261 8.0 14.0 0.00 0.01 0.01 88 1010.5
20260831093804 61 259 6.0 15.0 0.00 0.01 0.01 88 1010.5
20260831093305 61 274 5.0 9.0 0.00 0.01 0.01 88 1010.3
20260831092306 62 266 6.0 12.0 0.00 0.01 0.01 88 1010.2
20260831091804 61 272 6.0 12.0 0.00 0.01 0.01 89 1010.2
20260831091304 61 237 5.0 12.0 0.00 0.01 0.01 89 1010.1
20260831090805 61 263 7.0 17.0 0.00 0.01 0.01 89 1010.1
20260831085804 61 256 7.0 15.0 0.00 0.02 0.01 89 1010.0
20260831085306 61 263 8.0 15.0 0.00 0.02 0.01 90 1009.9